| time (UTC) | temp C | wind direction | speed KPH | gust KPH | rain 1hr cm | rain 24hr cm | rain mn cm | humidity % | barometer mb |
| 20260506140004 | 16 | 127 | 0.0 | 1.6 | 0.03 | 0.05 | 0.05 | 92 | 1012.6 |
| 20260506134503 | 16 | 126 | 0.0 | 1.6 | 0.00 | 0.03 | 0.03 | 91 | 1012.0 |
| 20260506133007 | 16 | 126 | 0.0 | 0.0 | 0.00 | 0.03 | 0.03 | 92 | 1012.1 |
| 20260506131504 | 16 | 127 | 0.0 | 1.6 | 0.03 | 0.03 | 0.03 | 91 | 1011.9 |
| 20260506130006 | 16 | 127 | 0.0 | 1.6 | 0.03 | 0.03 | 0.03 | 91 | 1012.2 |
| 20260506124504 | 16 | 126 | 1.6 | 1.6 | 0.03 | 0.03 | 0.03 | 90 | 1012.4 |
| 20260506121502 | 17 | 127 | 1.6 | 3.2 | 0.00 | 0.00 | 0.00 | 83 | 1011.6 |
| 20260506120004 | 17 | 120 | 1.6 | 1.6 | 0.00 | 0.00 | 0.00 | 80 | 1011.9 |
| 20260506114502 | 17 | 137 | 0.0 | 1.6 | 0.00 | 0.00 | 0.00 | 78 | 1011.7 |
| 20260506110004 | 17 | 153 | 1.6 | 6.4 | 0.00 | 0.00 | 0.00 | 75 | 1011.6 |
| 20260506104502 | 17 | 126 | 1.6 | 4.8 | 0.00 | 0.00 | 0.00 | 75 | 1010.9 |
| 20260506103003 | 17 | 149 | 0.0 | 1.6 | 0.00 | 0.00 | 0.00 | 73 | 1011.2 |
| 20260506100004 | 17 | 132 | 1.6 | 1.6 | 0.00 | 0.00 | 0.00 | 71 | 1010.6 |
| 20260506093002 | 17 | 120 | 1.6 | 3.2 | 0.00 | 0.00 | 0.00 | 70 | 1010.6 |
| 20260506091501 | 18 | 142 | 1.6 | 8.0 | 0.00 | 0.00 | 0.00 | 69 | 1010.5 |
| 20260506090004 | 18 | 174 | 1.6 | 6.4 | 0.00 | 0.00 | 0.00 | 69 | 1010.4 |
| 20260506084502 | 18 | 127 | 1.6 | 4.8 | 0.00 | 0.00 | 0.00 | 69 | 1010.5 |
| 20260506083002 | 18 | 143 | 1.6 | 8.0 | 0.00 | 0.00 | 0.00 | 67 | 1010.6 |
| 20260506081500 | 18 | 143 | 1.6 | 3.2 | 0.00 | 0.00 | 0.00 | 66 | 1010.6 |
| 20260506071503 | 18 | 353 | 3.2 | 9.7 | 0.00 | 0.00 | 0.00 | 61 | 1010.8 |
| 20260506061458 | 17 | 120 | 1.6 | 4.8 | 0.00 | 0.00 | 0.00 | 61 | 1011.6 |
| 20260506044501 | 17 | 134 | 1.6 | 4.8 | 0.00 | 0.00 | 0.00 | 63 | 1011.9 |
| 20260506043001 | 17 | 212 | 1.6 | 6.4 | 0.00 | 0.00 | 0.00 | 63 | 1011.9 |
| 20260506041501 | 17 | 143 | 0.0 | 3.2 | 0.00 | 0.00 | 0.00 | 62 | 1012.4 |
| 20260506040004 | 17 | 136 | 1.6 | 3.2 | 0.00 | 0.00 | 0.00 | 63 | 1012.1 |
| 20260506034501 | 16 | 114 | 1.6 | 3.2 | 0.00 | 0.00 | 0.00 | 65 | 1012.4 |
| 20260506033001 | 16 | 266 | 0.0 | 3.2 | 0.00 | 0.00 | 0.00 | 63 | 1012.3 |
| 20260506031501 | 17 | 217 | 1.6 | 8.0 | 0.00 | 0.00 | 0.00 | 60 | 1012.2 |
| 20260506030004 | 17 | 140 | 1.6 | 8.0 | 0.00 | 0.00 | 0.00 | 61 | 1012.3 |
| 20260506023002 | 17 | 269 | 3.2 | 8.0 | 0.00 | 0.00 | 0.00 | 57 | 1012.4 |
| 20260506021501 | 17 | 24 | 3.2 | 9.7 | 0.00 | 0.00 | 0.00 | 57 | 1012.0 |
| 20260506020003 | 17 | 77 | 3.2 | 9.7 | 0.00 | 0.00 | 0.00 | 54 | 1011.9 |
| 20260506013005 | 18 | 119 | 1.6 | 3.2 | 0.00 | 0.00 | 0.00 | 51 | 1011.9 |
| 20260506011501 | 18 | 149 | 1.6 | 3.2 | 0.00 | 0.00 | 0.00 | 50 | 1011.6 |
| 20260506010003 | 18 | 140 | 1.6 | 3.2 | 0.00 | 0.00 | 0.00 | 49 | 1011.9 |
| 20260506004501 | 19 | 142 | 1.6 | 4.8 | 0.00 | 0.00 | 0.00 | 48 | 1011.9 |
| 20260506003001 | 19 | 148 | 3.2 | 9.7 | 0.00 | 0.00 | 0.00 | 48 | 1011.6 |
| 20260506001504 | 19 | 26 | 1.6 | 8.0 | 0.00 | 0.00 | 0.00 | 47 | 1011.6 |
| 20260506000003 | 20 | 33 | 1.6 | 8.0 | 0.00 | 0.00 | 0.00 | 46 | 1011.5 |
| 20260505233000 | 21 | 122 | 3.2 | 9.7 | 0.00 | 0.00 | 0.00 | 47 | 1011.1 |
| 20260505231500 | 21 | 256 | 1.6 | 11.3 | 0.00 | 0.00 | 0.00 | 44 | 1011.2 |
| 20260505230004 | 21 | 296 | 4.8 | 16.1 | 0.00 | 0.00 | 0.00 | 44 | 1011.5 |
| 20260505224500 | 21 | 344 | 4.8 | 27.4 | 0.00 | 0.00 | 0.00 | 41 | 1011.9 |
| 20260505223000 | 22 | 308 | 6.4 | 19.3 | 0.00 | 0.00 | 0.00 | 40 | 1011.5 |
| 20260505221500 | 22 | 319 | 6.4 | 12.9 | 0.00 | 0.00 | 0.00 | 39 | 1011.3 |
| 20260505213001 | 23 | 290 | 4.8 | 12.9 | 0.00 | 0.00 | 0.00 | 39 | 1011.1 |
| 20260505211459 | 23 | 273 | 8.0 | 22.5 | 0.00 | 0.00 | 0.00 | 38 | 1011.1 |
| 20260505210003 | 23 | 338 | 6.4 | 17.7 | 0.00 | 0.00 | 0.00 | 38 | 1010.9 |
| 20260505204500 | 23 | 348 | 6.4 | 14.5 | 0.00 | 0.00 | 0.00 | 39 | 1010.9 |
| 20260505202959 | 23 | 297 | 6.4 | 16.1 | 0.00 | 0.00 | 0.00 | 37 | 1011.2 |
| 20260505201500 | 23 | 296 | 6.4 | 17.7 | 0.00 | 0.00 | 0.00 | 36 | 1011.4 |
| 20260505200003 | 23 | 323 | 8.0 | 17.7 | 0.00 | 0.00 | 0.00 | 37 | 1011.4 |
| 20260505192959 | 22 | 339 | 6.4 | 17.7 | 0.00 | 0.00 | 0.00 | 38 | 1011.6 |
| 20260505191730 | 22 | 1 | 8.0 | 19.3 | 0.00 | 0.00 | 0.00 | 37 | 1012.2 |
| 20260505190003 | 22 | 288 | 6.4 | 19.3 | 0.00 | 0.00 | 0.00 | 35 | 1012.4 |
| 20260505184459 | 22 | 336 | 6.4 | 16.1 | 0.00 | 0.00 | 0.00 | 38 | 1012.6 |
| 20260505183000 | 22 | 281 | 6.4 | 16.1 | 0.00 | 0.00 | 0.00 | 37 | 1012.5 |
| 20260505181459 | 22 | 319 | 4.8 | 12.9 | 0.00 | 0.00 | 0.00 | 42 | 1012.7 |
| 20260505180003 | 22 | 38 | 6.4 | 14.5 | 0.00 | 0.00 | 0.00 | 41 | 1012.7 |
| 20260505174459 | 22 | 295 | 6.4 | 17.7 | 0.00 | 0.00 | 0.00 | 39 | 1012.9 |
| 20260505173000 | 22 | 320 | 4.8 | 16.1 | 0.00 | 0.00 | 0.00 | 41 | 1013.3 |
| 20260505171459 | 22 | 347 | 6.4 | 16.1 | 0.00 | 0.00 | 0.00 | 42 | 1013.8 |
| 20260505170002 | 21 | 322 | 4.8 | 17.7 | 0.00 | 0.00 | 0.00 | 40 | 1013.7 |
| 20260505164500 | 21 | 219 | 6.4 | 19.3 | 0.00 | 0.00 | 0.00 | 43 | 1013.9 |
| 20260505163000 | 21 | 69 | 6.4 | 22.5 | 0.00 | 0.00 | 0.00 | 40 | 1013.9 |
| 20260505161504 | 20 | 308 | 6.4 | 14.5 | 0.00 | 0.00 | 0.00 | 43 | 1013.8 |